User: anonymous   Login
Location: Unspecified
(0.0000°N, 0.0000°E)
Time: 13:06:21
(UTC+02:00)
Language:

Iridium 75 - Orbit

View from above orbital plane
View from above orbital plane
View from above satellite
View from above satellite

Ground track
Ground track

The orbit data is extracted from the following two-line orbital elements,

1 25346U 98032E   17265.80712475 +.00000182 +00000-0 +57932-4 0  9998
2 25346 086.4022 183.3355 0002227 081.9106 278.2343 14.34224087013367
Epoch (UTC): 22 September 2017 19:22:15
Eccentricity: 0.0002227
inclination: 86.4022°
perigee height: 776 km
apogee height: 779 km
right ascension of ascending node: 183.3355°
argument of perigee: 81.9106°
revolutions per day: 14.34224087
mean anomaly at epoch: 278.2343°
orbit number at epoch: 1336

The dashed part of the orbit path shows where the satellite is in the earth's shadow,  

DLR